Location: Orange Harbor Mobile Home Park
(26.6923°N, 81.7937°W)
Time: 07:27:55
(UTC+00:00)

HJ-1C - Pass Details

Date: 19 September 2020
Orbit: 432 x 443 km, 97.1° (Epoch: 29 October)

Event Time Altitude Azimuth Distance (km) Brightness Sun altitude
Exits shadow 00:35:39 19° 158° (SSE) 1,103 5.1 -16.0°
Maximum altitude 00:37:52 67° 78° (ENE) 471 3.2 -16.5°
Drops below altitude 10° 00:41:08 10° 355° (N) 1,535 6.3 -17.2°
Sets 00:43:09 0° 353° (N) 2,407 7.3 -17.6°
